TimeCST,TemperatureF,Dew PointF,Humidity,Sea Level PressureIn,VisibilityMPH,Wind Direction,Wind SpeedMPH,Gust SpeedMPH,PrecipitationIn,Events,Conditions,WindDirDegrees,DateUTC
12:15 AM,73.4,60.8,65,30.04,10.0,SSE,8.1,-,N/A,,Overcast,160,2013-01-28 06:15:00
12:35 AM,73.4,60.8,65,30.05,10.0,SSE,6.9,16.1,N/A,,Overcast,160,2013-01-28 06:35:00
12:55 AM,73.4,60.8,65,30.05,10.0,Calm,Calm,-,N/A,,Overcast,0,2013-01-28 06:55:00
1:15 AM,73.4,60.8,65,30.05,10.0,Calm,Calm,-,N/A,,Overcast,0,2013-01-28 07:15:00
1:35 AM,73.4,60.8,65,30.05,10.0,SSE,11.5,16.1,N/A,,Overcast,160,2013-01-28 07:35:00
1:55 AM,73.4,59.0,61,30.05,10.0,SSE,13.8,18.4,N/A,,Overcast,160,2013-01-28 07:55:00
2:15 AM,73.4,59.0,61,30.05,10.0,Calm,Calm,-,N/A,,Overcast,0,2013-01-28 08:15:00
2:35 AM,73.4,59.0,61,30.05,10.0,Calm,Calm,-,N/A,,Overcast,0,2013-01-28 08:35:00
2:55 AM,73.4,59.0,61,30.05,10.0,Calm,Calm,-,N/A,,Overcast,0,2013-01-28 08:55:00
3:15 AM,73.4,59.0,61,30.05,10.0,Calm,Calm,-,N/A,,Overcast,0,2013-01-28 09:15:00
3:35 AM,73.4,59.0,61,30.05,10.0,Calm,Calm,-,N/A,,Overcast,0,2013-01-28 09:35:00
3:55 AM,71.6,59.0,64,30.04,10.0,Calm,Calm,-,N/A,,Overcast,0,2013-01-28 09:55:00
4:15 AM,71.6,60.8,69,30.04,10.0,Calm,Calm,-,N/A,,Overcast,0,2013-01-28 10:15:00
4:35 AM,71.6,60.8,69,30.04,10.0,Calm,Calm,-,N/A,Rain,Light Rain,0,2013-01-28 10:35:00
4:55 AM,71.6,60.8,69,30.03,10.0,Calm,Calm,-,N/A,,Overcast,0,2013-01-28 10:55:00
5:15 AM,71.6,60.8,69,30.03,10.0,Calm,Calm,-,N/A,,Overcast,0,2013-01-28 11:15:00
5:35 AM,71.6,60.8,69,30.03,10.0,Calm,Calm,-,N/A,,Overcast,0,2013-01-28 11:35:00
5:55 AM,71.6,60.8,69,30.03,10.0,SSE,5.8,-,N/A,,Overcast,150,2013-01-28 11:55:00
6:15 AM,71.6,60.8,69,30.04,10.0,Calm,Calm,-,N/A,,Overcast,0,2013-01-28 12:15:00
6:35 AM,71.6,60.8,69,30.04,10.0,Calm,Calm,-,N/A,,Overcast,0,2013-01-28 12:35:00
6:55 AM,71.6,62.6,73,30.05,10.0,Calm,Calm,-,N/A,,Overcast,0,2013-01-28 12:55:00
7:15 AM,71.6,62.6,73,30.05,10.0,Calm,Calm,-,N/A,,Overcast,0,2013-01-28 13:15:00
7:35 AM,71.6,62.6,73,30.05,10.0,Calm,Calm,-,N/A,,Overcast,0,2013-01-28 13:35:00
7:55 AM,71.6,62.6,73,30.05,10.0,Calm,Calm,-,N/A,,Overcast,0,2013-01-28 13:55:00
8:15 AM,71.6,62.6,73,30.06,7.0,Calm,Calm,-,N/A,,Overcast,0,2013-01-28 14:15:00
8:35 AM,71.6,62.6,73,30.06,7.0,Calm,Calm,-,N/A,,Overcast,0,2013-01-28 14:35:00
8:55 AM,71.6,62.6,73,30.06,7.0,Calm,Calm,-,N/A,,Overcast,0,2013-01-28 14:55:00
9:15 AM,71.6,62.6,73,30.07,7.0,Calm,Calm,-,N/A,,Overcast,0,2013-01-28 15:15:00
9:35 AM,71.6,62.6,73,30.07,10.0,Calm,Calm,-,N/A,,Overcast,0,2013-01-28 15:35:00
9:55 AM,73.4,62.6,69,30.07,10.0,Calm,Calm,-,N/A,,Overcast,0,2013-01-28 15:55:00
10:15 AM,73.4,62.6,69,30.07,10.0,Calm,Calm,-,N/A,,Overcast,0,2013-01-28 16:15:00
10:35 AM,73.4,62.6,69,30.07,10.0,SSE,3.5,-,N/A,,Overcast,150,2013-01-28 16:35:00
10:55 AM,75.2,60.8,61,30.06,10.0,Calm,Calm,-,N/A,,Overcast,0,2013-01-28 16:55:00
11:15 AM,77.0,60.8,57,30.06,10.0,SSE,6.9,-,N/A,,Overcast,160,2013-01-28 17:15:00
11:35 AM,77.0,60.8,57,30.05,10.0,SSE,11.5,17.3,N/A,,Overcast,160,2013-01-28 17:35:00
11:55 AM,78.8,59.0,51,30.04,10.0,SSE,16.1,21.9,N/A,,Overcast,160,2013-01-28 17:55:00
12:35 PM,80.6,55.4,42,30.01,10.0,South,18.4,25.3,N/A,,Overcast,180,2013-01-28 18:35:00
12:55 PM,82.4,55.4,39,29.99,10.0,South,15.0,23.0,N/A,,Mostly Cloudy,170,2013-01-28 18:55:00
1:15 PM,82.4,53.6,37,29.98,10.0,South,18.4,33.4,N/A,,Mostly Cloudy,170,2013-01-28 19:15:00
1:35 PM,82.4,53.6,37,29.97,10.0,South,21.9,29.9,N/A,,Mostly Cloudy,170,2013-01-28 19:35:00
1:55 PM,82.4,51.8,35,29.96,10.0,SSE,23.0,29.9,N/A,,Scattered Clouds,160,2013-01-28 19:55:00
2:15 PM,82.4,51.8,35,29.95,10.0,SSE,20.7,25.3,N/A,,Mostly Cloudy,160,2013-01-28 20:15:00
2:35 PM,82.4,53.6,37,29.95,10.0,SSE,15.0,27.6,N/A,,Overcast,160,2013-01-28 20:35:00
2:55 PM,82.4,51.8,35,29.94,10.0,SSE,19.6,31.1,N/A,,Overcast,160,2013-01-28 20:55:00
3:15 PM,82.4,51.8,35,29.94,10.0,SSE,16.1,29.9,N/A,,Overcast,160,2013-01-28 21:15:00
3:35 PM,82.4,51.8,35,29.94,10.0,South,19.6,25.3,N/A,,Overcast,170,2013-01-28 21:35:00
3:55 PM,82.4,51.8,35,29.93,10.0,SSE,19.6,28.8,N/A,,Overcast,160,2013-01-28 21:55:00
4:15 PM,82.4,51.8,35,29.92,10.0,South,18.4,25.3,N/A,,Overcast,170,2013-01-28 22:15:00
4:35 PM,80.6,51.8,37,29.92,10.0,SSE,17.3,26.5,N/A,,Overcast,160,2013-01-28 22:35:00
4:55 PM,80.6,51.8,37,29.92,10.0,SSE,20.7,28.8,N/A,,Overcast,160,2013-01-28 22:55:00
5:15 PM,80.6,53.6,39,29.92,10.0,SSE,13.8,23.0,N/A,,Overcast,160,2013-01-28 23:15:00
5:35 PM,78.8,53.6,42,29.92,10.0,SSE,18.4,23.0,N/A,,Overcast,160,2013-01-28 23:35:00
5:55 PM,78.8,55.4,44,29.92,10.0,SSE,12.7,18.4,N/A,,Overcast,150,2013-01-28 23:55:00
6:15 PM,78.8,55.4,44,29.92,10.0,SSE,16.1,24.2,N/A,,Overcast,150,2013-01-29 00:15:00
6:35 PM,78.8,55.4,44,29.93,10.0,SSE,16.1,20.7,N/A,,Overcast,160,2013-01-29 00:35:00
6:55 PM,77.0,55.4,47,29.94,10.0,SSE,12.7,-,N/A,,Overcast,160,2013-01-29 00:55:00
7:15 PM,77.0,55.4,47,29.93,10.0,SSE,12.7,21.9,N/A,,Overcast,150,2013-01-29 01:15:00
7:35 PM,77.0,55.4,47,29.93,10.0,SSE,13.8,20.7,N/A,,Overcast,150,2013-01-29 01:35:00
7:55 PM,77.0,57.2,50,29.94,10.0,SE,6.9,16.1,N/A,,Overcast,140,2013-01-29 01:55:00
8:15 PM,75.2,59.0,57,29.95,10.0,SE,10.4,17.3,N/A,,Overcast,140,2013-01-29 02:15:00
8:35 PM,75.2,59.0,57,29.95,10.0,SE,6.9,18.4,N/A,,Overcast,140,2013-01-29 02:35:00
8:55 PM,73.4,60.8,65,29.95,10.0,SSE,11.5,17.3,N/A,,Overcast,150,2013-01-29 02:55:00
9:15 PM,73.4,60.8,65,29.94,10.0,SSE,8.1,-,N/A,,Overcast,150,2013-01-29 03:15:00
9:35 PM,73.4,60.8,65,29.94,10.0,SSE,3.5,16.1,N/A,,Overcast,150,2013-01-29 03:35:00
9:55 PM,73.4,60.8,65,29.94,10.0,Calm,Calm,-,N/A,,Overcast,0,2013-01-29 03:55:00
10:15 PM,73.4,62.6,69,29.93,10.0,Calm,Calm,-,N/A,,Overcast,0,2013-01-29 04:15:00
10:35 PM,73.4,60.8,65,29.93,10.0,SE,5.8,-,N/A,,Overcast,140,2013-01-29 04:35:00
10:55 PM,73.4,62.6,69,29.93,10.0,SSE,11.5,-,N/A,,Overcast,150,2013-01-29 04:55:00
11:15 PM,73.4,62.6,69,29.93,10.0,Calm,Calm,-,N/A,,Overcast,0,2013-01-29 05:15:00
11:35 PM,73.4,62.6,69,29.92,10.0,SSE,11.5,16.1,N/A,,Overcast,150,2013-01-29 05:35:00
11:55 PM,73.4,62.6,69,29.92,10.0,SSE,12.7,18.4,N/A,,Overcast,150,2013-01-29 05:55:00